Tracking 19149 objects as of 21-Apr-2018
HD Live streaming from Space Station
objects crossing your sky now

FENGYUN 1C DEB

Track FENGYUN 1C DEB now!
10-day predictions


NORAD ID: 30127
Int'l Code: 1999-025SG
Perigee: 775.6 km
Apogee: 950.2 km
Inclination: 98.2 °
Period: 102.1 minutes
Semi major axis: 7233 km
RCS: 0.0339 m2 (small)
Launch date: May 10, 1999
Source: People's Republic of China (PRC)
Launch site: Taiyaun Space Center, China (TSC)

Note: This is SATELLITE DEBRIS
aabbcc
Your satellite tracking list
Your tracking list is empty




NASA's NSSDC Master Catalog

Two Line Element Set (TLE):
1 30127U 99025SG  18109.98847704 +.00000984 +00000-0 +53150-3 0  9992
2 30127 098.2092 131.1216 0120704 295.6594 063.2151 14.11048525576416
Source of the keplerian elements: AFSPC